Regional Weather Roundup
Issued by NWS

Home | Current Version | Previous Version | Graphics & Text | Print | Product List | Glossary On
Versions: 1 2 3 4 5 6 7 8 9 10 11 12 13 14 15 16 17 18 19 20 21 22 23 24 25 26 27 28 29 30 31 32 33 34 35 36 37 38 39 40 41 42 43 44 45 46 47 48 49 50
196
ASUS43 KIND 300309
RWRIN

WEATHER ROUNDUP FOR INDIANA
NATIONAL WEATHER SERVICE INDIANAPOLIS IN
1100 PM EDT MON MAY 29 2017

NOTE: "FAIR" INDICATES FEW OR NO CLOUDS BELOW 12,000 FEET WITH NO
SIGNIFICANT WEATHER AND/OR OBSTRUCTIONS TO VISIBILITY.

* - STATION DOES NOT REPORT WEATHER SUCH AS PRECIPITATION OR FOG.

+ - STATION NOT QUALITY CONTROLLED BY THE NATIONAL WEATHER SERVICE.
    USE DATA WITH CAUTION...ESPECIALLY DEWPOINT AND RELATIVE
    HUMIDITY OBSERVATIONS.

INZ001>003-010>013-019-020-300400-
NORTHWEST INDIANA

CITY           SKY/WX    TMP DP  RH WIND       PRES   REMARKS
GARY /AIRPORT/ PTCLDY    63  46  55 W5        29.89R
KNOX *+        CLEAR     64  34  32 W6        29.89R
LA PORTE +     CLEAR     59  47  64 NW3       29.90R
MICHIGAN CITY+ CLEAR     54  48  82 CALM      29.90R
MONTICELLO +   MOCLDY    64  48  55 CALM      29.91R
RENSSELAER +   CLEAR     64  37  36 W3        29.91R
VALPARAISO     CLEAR     62  48  60 W3        29.90R

$$

LMZ046-743>745-300400-
SOUTHERN LAKE MICHIGAN

STATION/POSITION TIME  TEMP    WIND        PRES    WAVE
                       AIR SEA DIR/SP/G            HT
                 (UTC) (F)     (DEG/KT/KT) (MB)    (FT)
BURNS HARBOR     0240   64     240/  7/  9 1012.5R
MICHIGAN CITY    0240   63     220/  6/  8   N/A
5NW MICH CITY    0300   58 56  290/  4/  4   N/A     2

$$

INZ004-005-014>016-021>024-300400-
NORTH CENTRAL INDIANA

CITY           SKY/WX    TMP DP  RH WIND       PRES   REMARKS
GOSHEN         CLEAR     58  48  69 S3        29.90R
LOGANSPORT +   CLOUDY    63  54  72 SW6       29.94R
PERU/GRISSOM   CLOUDY    63  57  82 W5        29.92R
ROCHESTER +    PTCLDY    64  45  48 CALM      29.91R
SOUTH BEND     CLEAR     54  47  77 NW6       29.90R
WARSAW +       CLEAR     59  46  63 CALM      29.91R

$$

INZ006>009-017-018-025>027-300400-
NORTHEAST INDIANA

CITY           SKY/WX    TMP DP  RH WIND       PRES   REMARKS
ANGOLA *+      CLEAR     57  54  88 CALM      29.89R
AUBURN +       PTCLDY    63  46  55 NW3       29.91R
FORT WAYNE     LGT RAIN  67  53  61 W14       29.93R
HUNTINGTON +   CLOUDY    62  52  68 W6        29.91R
KENDALLVILLE + CLEAR     62  46  57 CALM      29.91R

$$

INZ028-029-035-036-043>045-051>053-300400-
WEST CENTRAL INDIANA

CITY           SKY/WX    TMP DP  RH WIND       PRES   REMARKS
CRAWFORDSVL +  CLOUDY    62  56  80 W5        29.94S
GREENCASTLE +  CLOUDY    66  50  55 NW5       29.95R
LAFAYETTE      CLOUDY    61  57  87 NW6       29.91R
TERRE HAUTE    MOCLDY    69  50  50 W3        29.95R

$$

INZ030>032-037>040-046>048-054>057-064-065-300400-
CENTRAL INDIANA

CITY           SKY/WX    TMP DP  RH WIND       PRES   REMARKS
CP ATTERBURY + MOCLDY    66  55  68 SW5       29.92S
FISHERS *+     CLOUDY    63  61  94 SW8G21    29.95
FRANKFORT +    CLOUDY    67  54  62 W6        29.96R
GREENWOOD *+   CLOUDY    72  51  48 W3        29.92R
INDIANAPOLIS   TSTM      66  54  65 NW12      29.94R
-EAGLE CREEK   RAIN      66  54  65 W15G22    29.93R
KOKOMO +       LGT RAIN  66  55  67 W10       29.94R
MARION +       CLOUDY    64  54  68 NW5       29.92R
MT COMFORT *+    N/A    N/A N/A N/A MISG        N/A
SHELBYVILLE    MOCLDY    71  55  56 S7        29.90R
ZIONSVILLE +   CLOUDY    63  58  83 W5        29.94R

$$

INZ033-034-041-042-049-050-058-059-300400-
EAST CENTRAL INDIANA

CITY           SKY/WX    TMP DP  RH WIND       PRES   REMARKS
MUNCIE         TSTM      68  54  60 SW14G29   29.93R
RICHMOND +     CLEAR     66  55  68 SW8       29.93R

$$

INZ060-061-067>069-081>083-085>088-300400-
SOUTHWEST INDIANA

CITY           SKY/WX    TMP DP  RH WIND       PRES   REMARKS
EVANSVILLE     CLOUDY    65  59  81 W7        29.99R
HUNTINGBURG *+ CLOUDY    71  59  65 SW8       29.95R
WASHINGTON +   MOCLDY    71  51  49 W7        29.95R

$$

INZ062-063-066-070>080-084-089>092-300400-
SOUTH CENTRAL AND SOUTHEAST INDIANA

CITY           SKY/WX    TMP DP  RH WIND       PRES   REMARKS
BEDFORD +      PTCLDY    68  52  56 CALM      29.93R
BLOOMINGTON    MOCLDY    72  49  44 W5        29.94R
MADISON *+     CLEAR     68  52  56 S5        29.97S
NORTH VERNON + CLEAR     68  55  64 S7        29.93S
SEYMOUR +      MOCLDY    70  57  64 S6        29.93R

$$





USA.gov is the U.S. government's official web portal to all federal, state and local government web resources and services.